Location: East Guldeford
(50.9500°N, 0.7500°E)
Time: 09:46:58
(UTC+00:00)

Cosmos 1500 - Pass Details

Date: 12 May 2021
Orbit: 497 x 519 km, 82.5° (Epoch: 16 June)

Event Time Altitude Azimuth Distance (km) Brightness Sun altitude
Rises 21:04:26 0° 345° (NNW) 2,615 8.1 -11.4°
Reaches altitude 10° 21:06:37 10° 340° (NNW) 1,722 7.1 -11.6°
Maximum altitude 21:10:16 49° 265° (W) 651 3.9 -12.0°
Drops below altitude 10° 21:13:52 10° 190° (S) 1,699 5.4 -12.4°
Enters shadow 21:13:57 - 189° (S) 1,736 5.5 -12.4°
